Tracking 28520 objects as of 1-Mar-2024
HD Live streaming from Space Station
objects crossing your sky now

ONEWEB-0211

Track ONEWEB-0211 now!
10-day predictions
ONEWEB-0211 is classified as:


NORAD ID: 48767
Int'l Code: 2021-045A
Perigee: 1,207.5 km
Apogee: 1,210.3 km
Inclination: 87.9 °
Period: 109.5 minutes
Semi major axis: 7579 km
RCS: Unknown
Launch date: May 28, 2021
Source: United Kingdom (UK)
Launch site: VOSTOCHNY COSMODROME (VOSTO)
Your satellite tracking list
Your tracking list is empty




NASA's NSSDC Master Catalog

Two Line Element Set (TLE):
1 48767U 21045A   24060.94325767  .00000030  00000-0  45129-4 0  9997
2 48767  87.8951  66.0084 0001871  88.2119 271.9226 13.15547050134202
Source of the keplerian elements: AFSPC